Project,Study,Ord_Occ,Event_Num,Cast_ID,Date_Time_UTC,Date_Time_PST,Lat_Dec,Lon_Dec,Sta_ID,Line,Sta,Depth,Pressure,PrQ,Temp1,Temp1Q,Temp2,Temp2Q,TempAve,Salt1,Salt1Q,Salt1_Corr,Salt2,Salt2Q,Salt2_Corr,SaltAve_Corr,Ox1,Ox1Q,Ox1_CruiseCorr,Ox1_StaCorr,Ox2,Ox2Q,Ox2_CruiseCorr,Ox2_StaCorr,OxAve_StaCorr,Ox1uM,Ox1uM_CruiseCorr,Ox1uM_StaCorr,Ox2uM,Ox2uM_CruiseCorr,Ox2uM_StaCorr,OxAveuM_StaCorr,FluorV,FluorQ,EstChl_CruiseCorr,EstChl_StaCorr,ISUSV,ISUSQ,EstNO3_CruiseCorr,EstNO3_StaCorr,SigThetaTS1,SigThetaTS1Q,SigThetaTS2,SigThetaTS2Q,BAT,XMiss,TransQ,pH,pHQ,SPAR,SPARQ,PAR,PARQ,PoT1,PoT2,DynHt,SVA,OxSat1,OxSat2,BTL_Depth,BTL_Temp,SaltB,OxB,OxBuM,Chl-a,Phaeo,NO3,NO2,NH4,PO4,SIL
CalCOFI,2007SR,067,69,2007_067d,26-Jul-2020 11:22:07,26-Jul-2020 03:22:07,35.02188,-120.91856,076.7 051.0,076.7,051.0,1.000,1.007,,14.7449,,14.7430,,14.7440,33.7171,,33.7173,33.7173,,33.7189,33.7181,6.6044,,6.8832,6.7675,4.6946,,7.2662,5.7410,6.2543,287.746,299.8899,294.1050,204.538,538.2409,237.8896,265.9973,0.6988,,7.9129,13.8591,-99.0,,-99.0,-99.0,25.0381,,25.0387,,1.5059,68.6282,,8.282,,1.9043E+00,,1.5789E-01,,14.7447,14.7428,-0.0011,,114.522,81.402,,,,,,,,,,,,
CalCOFI,2007SR,067,69,2007_067d,26-Jul-2020 11:22:28,26-Jul-2020 03:22:28,35.02188,-120.91856,076.7 051.0,076.7,051.0,2.000,2.015,,14.7552,,14.7520,,14.7536,33.7175,,33.7177,33.7181,,33.7197,33.7187,6.6380,,6.9183,6.8022,4.7405,,7.3758,5.8621,6.3322,289.211,301.4193,295.6075,206.539,541.8240,242.5345,269.0710,0.6795,,7.6787,13.3780,-99.0,,-99.0,-99.0,25.0363,,25.0374,,1.5011,68.7109,,8.283,,1.9043E+00,,1.2159E-01,,14.7550,14.7517,0.0092,,115.129,82.214,2,14.664,33.7181,6.723,293.49,13.229,0.524,0.0,0.034,0.00,0.23,8.66
CalCOFI,2007SR,067,69,2007_067d,26-Jul-2020 11:22:35,26-Jul-2020 03:22:35,35.02188,-120.91856,076.7 051.0,076.7,051.0,3.000,3.022,,14.7574,,14.7571,,14.7573,33.7174,,33.7176,33.7180,,33.7196,33.7186,6.6387,,6.9191,6.8029,4.7555,,7.4116,5.9017,6.3523,289.244,301.4537,295.6413,207.194,541.9047,244.0550,269.8482,0.6835,,7.7272,13.4773,-99.0,,-99.0,-99.0,25.0358,,25.0363,,1.4915,68.8750,,8.283,,1.9043E+00,,1.0587E-01,,14.7570,14.7567,0.0149,,115.147,82.483,,,,,,,,,,,,
CalCOFI,2007SR,067,69,2007_067d,26-Jul-2020 11:22:40,26-Jul-2020 03:22:40,35.02188,-120.91856,076.7 051.0,076.7,051.0,4.000,4.029,,14.7574,,14.7580,,14.7577,33.7175,,33.7177,33.7180,,33.7196,33.7187,6.5850,,6.8630,6.7475,4.7655,,7.4355,5.9280,6.3378,286.902,299.0089,293.2395,207.629,536.1765,245.0648,269.1522,0.6772,,7.6508,13.3209,-99.0,,-99.0,-99.0,25.0359,,25.0361,,1.4918,68.8707,,8.284,,1.9043E+00,,9.0556E-02,,14.7568,14.7574,0.0186,,114.214,82.657,,,,,,,,,,,,
CalCOFI,2007SR,067,69,2007_067d,26-Jul-2020 11:22:42,26-Jul-2020 03:22:42,35.02188,-120.91856,076.7 051.0,076.7,051.0,5.000,5.036,,14.7426,,14.7310,,14.7368,33.7171,,33.7173,33.7191,,33.7207,33.7190,6.1536,,6.4122,6.3030,4.7826,,7.4763,5.9732,6.1381,268.105,279.3867,273.9620,208.373,490.2018,246.7918,260.3769,0.6808,,7.6945,13.4102,-99.0,,-99.0,-99.0,25.0388,,25.0428,,1.5128,68.5103,,8.277,,1.9043E+00,,7.5597E-02,,14.7418,14.7303,0.0215,,106.700,82.910,,,,,,,,,,,,
CalCOFI,2007SR,067,69,2007_067d,26-Jul-2020 11:22:44,26-Jul-2020 03:22:44,35.02188,-120.91856,076.7 051.0,076.7,051.0,6.000,6.044,,14.6282,,14.6426,,14.6354,33.7117,,33.7119,33.7067,,33.7083,33.7101,5.8789,,6.1252,6.0199,4.7999,,7.5176,6.0188,6.0194,256.132,266.8881,261.6830,209.124,460.9175,248.5351,255.1091,0.7991,,9.1338,16.4334,-99.0,,-99.0,-99.0,25.0592,,25.0522,,1.5990,67.0545,,8.266,,1.9043E+00,,7.2233E-02,,14.6273,14.6418,0.0244,,101.701,83.056,,,,,,,,,,,,
CalCOFI,2007SR,067,69,2007_067d,26-Jul-2020 11:22:46,26-Jul-2020 03:22:46,35.02188,-120.91856,076.7 051.0,076.7,051.0,7.000,7.051,,14.4464,,14.4504,,14.4484,33.7115,,33.7117,33.7145,,33.7161,33.7139,5.8116,,6.0548,5.9506,4.8069,,7.5343,6.0373,5.9940,253.190,263.8169,258.6658,209.419,453.7218,249.2199,253.9429,0.8626,,9.9099,18.1275,-99.0,,-99.0,-99.0,25.0978,,25.0993,,1.5790,67.3916,,8.223,,1.9043E+00,,6.9506E-02,,14.4453,14.4493,0.0273,,100.169,82.860,,,,,,,,,,,,
CalCOFI,2007SR,067,69,2007_067d,26-Jul-2020 11:22:48,26-Jul-2020 03:22:48,35.02188,-120.91856,076.7 051.0,076.7,051.0,8.000,8.058,,14.3814,,14.3833,,14.3824,33.7131,,33.7133,33.7133,,33.7149,33.7141,5.8178,,6.0613,5.9569,4.7969,,7.5104,6.0109,5.9839,253.458,264.0967,258.9407,208.983,454.3773,248.2078,253.5743,0.7466,,8.4940,15.0705,-99.0,,-99.0,-99.0,25.1128,,25.1126,,1.4905,68.8928,,8.206,,1.9043E+00,,6.7339E-02,,14.3802,14.3822,0.0302,,100.146,82.577,,,,,,,,,,,,
CalCOFI,2007SR,067,69,2007_067d,26-Jul-2020 11:22:51,26-Jul-2020 03:22:51,35.02187,-120.91856,076.7 051.0,076.7,051.0,9.000,9.066,,14.3578,,14.3557,,14.3568,33.7138,,33.7140,33.7150,,33.7166,33.7153,5.7207,,5.9599,5.8569,4.7726,,7.4524,5.9468,5.9019,249.228,259.6810,254.6026,207.921,444.0313,245.7426,250.1726,0.6900,,7.8061,13.6391,-99.0,,-99.0,-99.0,25.1184,,25.1198,,1.4135,70.2319,,8.197,,1.9043E+00,,7.3576E-02,,14.3565,14.3544,0.0331,,98.430,82.113,,,,,,,,,,,,
CalCOFI,2007SR,067,69,2007_067d,26-Jul-2020 11:22:53,26-Jul-2020 03:22:53,35.02188,-120.91855,076.7 051.0,076.7,051.0,10.000,10.073,,14.3161,,14.3115,,14.3138,33.7145,,33.7147,33.7145,,33.7161,33.7154,5.5608,,5.7928,5.6921,4.7480,,7.3937,5.8819,5.7870,242.257,252.4040,247.4534,206.846,426.9812,243.2472,245.3503,0.5837,,6.5194,11.0579,-99.0,,-99.0,-99.0,25.1278,,25.1287,,1.3873,70.6934,,8.195,,1.9043E+00,,7.2195E-02,,14.3146,14.3101,0.0359,,95.597,81.616,10,14.243,33.7177,5.810,253.66,10.900,0.409,0.98,0.040,0.42,0.40,9.72
CalCOFI,2007SR,067,69,2007_067d,26-Jul-2020 11:22:54,26-Jul-2020 03:22:54,35.02188,-120.91856,076.7 051.0,076.7,051.0,11.000,11.080,,14.2987,,14.2947,,14.2967,33.7131,,33.7133,33.7121,,33.7137,33.7135,5.5711,,5.8035,5.7027,4.7394,,7.3732,5.8592,5.7810,242.707,252.8737,247.9149,206.473,428.0819,242.3813,245.1481,0.5578,,6.2070,10.4502,-99.0,,-99.0,-99.0,25.1304,,25.1305,,1.3795,70.8320,,8.192,,1.9043E+00,,7.2787E-02,,14.2971,14.2931,0.0388,,95.740,81.440,,,,,,,,,,,,
CalCOFI,2007SR,067,69,2007_067d,26-Jul-2020 11:22:55,26-Jul-2020 03:22:55,35.02188,-120.91856,076.7 051.0,076.7,051.0,12.000,12.088,,14.1748,,14.1818,,14.1783,33.7105,,33.7107,33.7127,,33.7143,33.7125,5.5853,,5.8184,5.7174,4.7396,,7.3736,5.8597,5.7886,243.318,253.5116,248.5415,206.477,429.5763,242.3906,245.4661,0.5132,,5.6699,9.4230,-99.0,,-99.0,-99.0,25.1545,,25.1547,,1.2892,72.4504,,8.182,,1.9043E+00,,7.0050E-02,,14.1731,14.1801,0.0416,,95.743,81.259,,,,,,,,,,,,
CalCOFI,2007SR,067,69,2007_067d,26-Jul-2020 11:22:59,26-Jul-2020 03:22:59,35.02187,-120.91855,076.7 051.0,076.7,051.0,13.000,13.095,,14.1612,,14.1660,,14.1636,33.7157,,33.7159,33.7175,,33.7191,33.7175,5.4722,,5.7002,5.6008,4.7066,,7.2949,5.7726,5.6867,238.390,248.3672,243.4876,205.037,417.5231,239.0479,241.2678,0.5726,,6.3855,10.7965,-99.0,,-99.0,-99.0,25.1614,,25.1618,,1.2454,73.2481,,8.169,,1.9043E+00,,6.5761E-02,,14.1593,14.1641,0.0444,,93.781,80.669,,,,,,,,,,,,
CalCOFI,2007SR,067,69,2007_067d,26-Jul-2020 11:23:02,26-Jul-2020 03:23:02,35.02188,-120.91854,076.7 051.0,076.7,051.0,14.000,14.102,,14.0448,,14.0088,,14.0268,33.7128,,33.7130,33.7126,,33.7142,33.7136,5.3490,,5.5715,5.4738,4.6919,,7.2598,5.7339,5.6039,233.017,242.7583,237.9773,204.390,404.3815,237.5461,237.7617,0.4202,,4.5538,7.3602,-99.0,,-99.0,-99.0,25.1835,,25.1909,,1.1569,74.8838,,8.158,,1.9043E+00,,6.2588E-02,,14.0428,14.0068,0.0472,,91.452,80.159,,,,,,,,,,,,
CalCOFI,2007SR,067,69,2007_067d,26-Jul-2020 11:23:02,26-Jul-2020 03:23:02,35.02188,-120.91856,076.7 051.0,076.7,051.0,15.000,15.110,,13.9823,,13.9708,,13.9766,33.7142,,33.7144,33.7153,,33.7169,33.7157,5.3644,,5.5876,5.4897,4.6854,,7.2443,5.7167,5.6032,233.684,243.4546,238.6613,204.105,406.0129,236.8845,237.7729,0.3893,,4.1841,6.6984,-99.0,,-99.0,-99.0,25.1976,,25.2009,,1.1561,74.8992,,8.155,,1.9043E+00,,5.7929E-02,,13.9801,13.9687,0.0500,,91.600,79.988,,,,,,,,,,,,
CalCOFI,2007SR,067,69,2007_067d,26-Jul-2020 11:23:03,26-Jul-2020 03:23:03,35.02188,-120.91856,076.7 051.0,076.7,051.0,16.000,16.117,,13.9359,,13.9362,,13.9361,33.7147,,33.7149,33.7151,,33.7167,33.7158,5.3745,,5.5981,5.5001,4.6798,,7.2309,5.7019,5.6010,234.122,243.9119,239.1105,203.861,407.0842,236.3181,237.7143,0.3970,,4.2762,6.8622,-99.0,,-99.0,-99.0,25.2077,,25.2079,,1.1561,74.8998,,8.153,,1.9043E+00,,5.9858E-02,,13.9336,13.9340,0.0528,,91.687,79.837,,,,,,,,,,,,
CalCOFI,2007SR,067,69,2007_067d,26-Jul-2020 11:23:07,26-Jul-2020 03:23:07,35.02187,-120.91856,076.7 051.0,076.7,051.0,17.000,17.124,,13.9385,,13.9404,,13.9395,33.7172,,33.7174,33.7182,,33.7198,33.7186,5.3366,,5.5585,5.4611,4.6423,,7.1414,5.6030,5.5321,232.472,242.1894,237.4183,202.229,403.0485,232.5297,234.9740,0.4232,,4.5897,7.4250,-99.0,,-99.0,-99.0,25.2091,,25.2095,,1.1409,75.1844,,8.147,,1.9043E+00,,4.9601E-02,,13.9361,13.9380,0.0556,,91.047,79.206,,,,,,,,,,,,
CalCOFI,2007SR,067,69,2007_067d,26-Jul-2020 11:23:10,26-Jul-2020 03:23:10,35.02188,-120.91855,076.7 051.0,076.7,051.0,18.000,18.132,,13.8916,,13.8911,,13.8914,33.7150,,33.7152,33.7162,,33.7178,33.7165,5.3098,,5.5305,5.4335,4.6165,,7.0798,5.5349,5.4842,231.305,240.9712,236.2215,201.099,400.1942,229.9066,233.0641,0.3714,,3.9703,6.3204,-99.0,,-99.0,-99.0,25.2172,,25.2182,,1.1298,75.3942,,8.147,,1.9043E+00,,3.4488E-02,,13.8890,13.8885,0.0585,,90.503,78.684,,,,,,,,,,,,
CalCOFI,2007SR,067,69,2007_067d,26-Jul-2020 11:23:11,26-Jul-2020 03:23:11,35.02187,-120.91856,076.7 051.0,076.7,051.0,19.000,19.139,,13.8669,,13.8660,,13.8665,33.7168,,33.7170,33.7184,,33.7200,33.7185,5.3087,,5.5294,5.4323,4.6062,,7.0552,5.5078,5.4701,231.252,240.9159,236.1672,200.652,400.0646,228.8690,232.5181,0.3677,,3.9261,6.2428,-99.0,,-99.0,-99.0,25.2237,,25.2251,,1.1332,75.3302,,8.147,,1.9043E+00,,4.1070E-02,,13.8642,13.8633,0.0612,,90.438,78.471,,,,,,,,,,,,
CalCOFI,2007SR,067,69,2007_067d,26-Jul-2020 11:23:12,26-Jul-2020 03:23:12,35.02186,-120.91856,076.7 051.0,076.7,051.0,20.000,20.146,,13.8794,,13.8860,,13.8827,33.7183,,33.7185,33.7195,,33.7211,33.7198,5.2971,,5.5172,5.4204,4.5908,,7.0184,5.4671,5.4438,230.747,240.3887,235.6492,199.982,398.8294,227.3137,231.4815,0.3789,,4.0598,6.4783,-99.0,,-99.0,-99.0,25.2223,,25.2219,,1.1318,75.3555,,8.147,,1.9043E+00,,3.3383E-02,,13.8766,13.8832,0.0640,,90.264,78.241,20,13.830,33.7179,5.609,244.86,7.463,0.344,2.51,0.067,0.93,0.47,10.53
CalCOFI,2007SR,067,69,2007_067d,26-Jul-2020 11:23:14,26-Jul-2020 03:23:14,35.02188,-120.91856,076.7 051.0,076.7,051.0,21.000,21.154,,13.8748,,13.8749,,13.8749,33.7172,,33.7174,33.7173,,33.7189,33.7182,5.2920,,5.5119,5.4151,4.5787,,6.9895,5.4352,5.4252,230.526,240.1580,235.4226,199.454,398.2889,226.0880,230.7553,0.3691,,3.9428,6.2722,-99.0,,-99.0,-99.0,25.2224,,25.2225,,1.1192,75.5925,,8.144,,1.9043E+00,,2.3270E-02,,13.8718,13.8719,0.0667,,90.169,78.016,,,,,,,,,,,,
CalCOFI,2007SR,067,69,2007_067d,26-Jul-2020 11:23:17,26-Jul-2020 03:23:17,35.02188,-120.91856,076.7 051.0,076.7,051.0,22.000,22.161,,13.8582,,13.8714,,13.8648,33.7169,,33.7171,33.7182,,33.7198,33.7185,5.2055,,5.4215,5.3260,4.5538,,6.9301,5.3695,5.3478,226.758,236.2246,231.5583,198.368,389.0729,223.5671,227.5627,0.4013,,4.3276,6.9540,-99.0,,-99.0,-99.0,25.2257,,25.2239,,1.1072,75.8203,,8.135,,1.9043E+00,,1.9865E-02,,13.8551,13.8682,0.0695,,88.665,77.586,,,,,,,,,,,,
CalCOFI,2007SR,067,69,2007_067d,26-Jul-2020 11:23:20,26-Jul-2020 03:23:20,35.02188,-120.91854,076.7 051.0,076.7,051.0,23.000,23.169,,13.7576,,13.7678,,13.7627,33.7131,,33.7133,33.7134,,33.7150,33.7142,5.1359,,5.3488,5.2543,4.5461,,6.9117,5.3492,5.3018,223.722,233.0553,228.4447,198.029,381.6473,222.7802,225.6125,0.3269,,3.4394,5.3980,-99.0,,-99.0,-99.0,25.2435,,25.2416,,1.0716,76.4974,,8.129,,1.9043E+00,,1.7906E-02,,13.7543,13.7645,0.0722,,87.299,77.289,,,,,,,,,,,,
CalCOFI,2007SR,067,69,2007_067d,26-Jul-2020 11:23:21,26-Jul-2020 03:23:21,35.02188,-120.91856,076.7 051.0,076.7,051.0,24.000,24.176,,13.7232,,13.7231,,13.7232,33.7159,,33.7161,33.7166,,33.7182,33.7172,5.1259,,5.3384,5.2439,4.5445,,6.9079,5.3450,5.2945,223.285,232.5991,227.9965,197.958,380.5784,222.6154,225.3060,0.3177,,3.3298,5.2103,-99.0,,-99.0,-99.0,25.2528,,25.2534,,1.0707,76.5156,,8.129,,1.9043E+00,,1.4670E-02,,13.7198,13.7197,0.0750,,87.070,77.194,,,,,,,,,,,,
CalCOFI,2007SR,067,69,2007_067d,26-Jul-2020 11:23:22,26-Jul-2020 03:23:22,35.02188,-120.91856,076.7 051.0,076.7,051.0,25.000,25.183,,13.7237,,13.7250,,13.7244,33.7153,,33.7155,33.7163,,33.7179,33.7167,5.1243,,5.3367,5.2423,4.5377,,6.8917,5.3270,5.2847,223.216,232.5271,227.9258,197.662,380.4097,221.9283,224.9271,0.3047,,3.1750,4.9469,-99.0,,-99.0,-99.0,25.2522,,25.2527,,1.1180,75.6178,,8.126,,1.9043E+00,,1.4891E-02,,13.7202,13.7214,0.0777,,87.043,77.081,,,,,,,,,,,,
CalCOFI,2007SR,067,69,2007_067d,26-Jul-2020 11:23:23,26-Jul-2020 03:23:23,35.02188,-120.91856,076.7 051.0,076.7,051.0,26.000,26.191,,13.7089,,13.7103,,13.7096,33.7137,,33.7139,33.7155,,33.7171,33.7155,5.1443,,5.3576,5.2629,4.5295,,6.8721,5.3054,5.2842,224.087,233.4363,228.8190,197.305,382.5400,221.0995,224.9593,0.2964,,3.0762,4.7799,-99.0,,-99.0,-99.0,25.2540,,25.2551,,1.1451,75.1275,,8.123,,1.9043E+00,,2.2476E-02,,13.7052,13.7067,0.0805,,87.356,76.919,,,,,,,,,,,,
CalCOFI,2007SR,067,69,2007_067d,26-Jul-2020 11:23:27,26-Jul-2020 03:23:27,35.02187,-120.91855,076.7 051.0,076.7,051.0,27.000,27.198,,13.6821,,13.7016,,13.6919,33.7119,,33.7121,33.7145,,33.7161,33.7141,5.0848,,5.2954,5.2016,4.4997,,6.8009,5.2268,5.2142,221.491,230.7264,226.1567,196.005,376.1905,218.0818,222.1193,0.2999,,3.1179,4.8502,-99.0,,-99.0,-99.0,25.2582,,25.2562,,1.0453,76.9980,,8.114,,1.9043E+00,,1.6351E-02,,13.6783,13.6978,0.0854,,86.296,76.398,,,,,,,,,,,,
CalCOFI,2007SR,067,69,2007_067d,26-Jul-2020 11:23:30,26-Jul-2020 03:23:30,35.02188,-120.91854,076.7 051.0,076.7,051.0,28.000,28.206,,13.6236,,13.6258,,13.6247,33.7120,,33.7122,33.7118,,33.7134,33.7128,5.0241,,5.2320,5.1390,4.4920,,6.7826,5.2065,5.1728,218.848,227.9673,223.4461,195.668,369.7261,217.2995,220.3728,0.2651,,2.7042,4.1575,-99.0,,-99.0,-99.0,25.2703,,25.2697,,1.1050,75.8793,,8.116,,1.9043E+00,,1.8756E-02,,13.6196,13.6218,0.0897,,85.166,76.149,,,,,,,,,,,,
CalCOFI,2007SR,067,69,2007_067d,26-Jul-2020 11:23:31,26-Jul-2020 03:23:31,35.02186,-120.91856,076.7 051.0,076.7,051.0,29.000,29.213,,13.6159,,13.6136,,13.6148,33.7119,,33.7121,33.7133,,33.7149,33.7135,5.0255,,5.2334,5.1405,4.4879,,6.7728,5.1957,5.1681,218.909,228.0310,223.5087,195.491,369.8753,216.8887,220.1987,0.2658,,2.7125,4.1713,-99.0,,-99.0,-99.0,25.2718,,25.2734,,1.1610,74.8200,,8.116,,1.9043E+00,,1.5998E-02,,13.6118,13.6095,0.0925,,85.176,76.061,,,,,,,,,,,,
CalCOFI,2007SR,067,69,2007_067d,26-Jul-2020 11:23:33,26-Jul-2020 03:23:33,35.02186,-120.91856,076.7 051.0,076.7,051.0,30.000,30.220,,13.6196,,13.6258,,13.6227,33.7132,,33.7134,33.7140,,33.7156,33.7145,4.9872,,5.1934,5.1010,4.4643,,6.7164,5.1334,5.1172,217.238,226.2866,221.7950,194.461,365.7883,214.4977,218.1464,0.2839,,2.9276,4.5298,-99.0,,-99.0,-99.0,25.2720,,25.2714,,1.1567,74.8936,,8.109,,1.9043E+00,,1.4584E-02,,13.6154,13.6216,0.0957,,84.533,75.680,30,13.718,33.7133,,228.78,6.248,0.341,4.00,0.083,1.18,0.58,10.73
CalCOFI,2007SR,067,69,2007_067d,26-Jul-2020 11:23:38,26-Jul-2020 03:23:38,35.02187,-120.91854,076.7 051.0,076.7,051.0,31.000,31.228,,13.5767,,13.5853,,13.5810,33.7103,,33.7105,33.7109,,33.7125,33.7115,4.9002,,5.1025,5.0114,4.4407,,6.6601,5.0711,5.0413,213.447,222.3292,217.9071,193.434,356.5161,212.1137,215.0104,0.2618,,2.6650,4.0926,-99.0,,-99.0,-99.0,25.2786,,25.2773,,1.1586,74.8523,,8.107,,1.9043E+00,,1.2009E-02,,13.5724,13.5809,0.0989,,82.984,75.217,,,,,,,,,,,,
CalCOFI,2007SR,067,69,2007_067d,26-Jul-2020 11:23:39,26-Jul-2020 03:23:39,35.02186,-120.91855,076.7 051.0,076.7,051.0,32.000,32.235,,13.5617,,13.5629,,13.5623,33.7112,,33.7114,33.7120,,33.7136,33.7125,4.8883,,5.0901,4.9991,4.4359,,6.6486,5.0585,5.0288,212.927,221.7864,217.3738,193.224,355.2442,211.6263,214.5001,0.2550,,2.5842,3.9592,-99.0,,-99.0,-99.0,25.2824,,25.2828,,1.1566,74.8894,,8.106,,1.9043E+00,,5.3761E-03,,13.5572,13.5584,0.1016,,82.758,75.102,,,,,,,,,,,,
CalCOFI,2007SR,067,69,2007_067d,26-Jul-2020 11:23:40,26-Jul-2020 03:23:40,35.02186,-120.91856,076.7 051.0,076.7,051.0,33.000,33.243,,13.5567,,13.5613,,13.5590,33.7093,,33.7095,33.7119,,33.7135,33.7115,4.8745,,5.0757,4.9849,4.4284,,6.6307,5.0387,5.0118,212.325,221.1580,216.7564,192.895,353.7718,210.8625,213.8095,0.2561,,2.5973,3.9807,-99.0,,-99.0,-99.0,25.2820,,25.2830,,1.1551,74.9190,,8.101,,1.9043E+00,,9.8232E-03,,13.5521,13.5567,0.1043,,82.514,74.971,,,,,,,,,,,,
CalCOFI,2007SR,067,69,2007_067d,26-Jul-2020 11:23:41,26-Jul-2020 03:23:41,35.02186,-120.91856,076.7 051.0,076.7,051.0,34.000,34.250,,13.5435,,13.5513,,13.5474,33.7103,,33.7105,33.7105,,33.7121,33.7113,4.8572,,5.0576,4.9671,4.4230,,6.6178,5.0244,4.9958,211.571,220.3709,215.9832,192.660,351.9276,210.3170,213.1501,0.2395,,2.4003,3.6574,-99.0,,-99.0,-99.0,25.2855,,25.2840,,1.1194,75.5902,,8.095,,1.9043E+00,,7.5782E-03,,13.5387,13.5465,0.1070,,82.200,74.864,,,,,,,,,,,,
CalCOFI,2007SR,067,69,2007_067d,26-Jul-2020 11:23:45,26-Jul-2020 03:23:45,35.02186,-120.91855,076.7 051.0,076.7,051.0,35.000,35.258,,13.5116,,13.5282,,13.5199,33.7099,,33.7101,33.7120,,33.7136,33.7119,4.7231,,4.9175,4.8289,4.3993,,6.5612,4.9619,4.8954,205.731,214.2745,209.9939,191.628,337.6438,207.9214,208.9577,0.2599,,2.6424,4.0552,-99.0,,-99.0,-99.0,25.2917,,25.2899,,0.9649,78.5627,,8.091,,1.9043E+00,,5.0951E-03,,13.5067,13.5234,0.1105,,79.879,74.429,,,,,,,,,,,,
CalCOFI,2007SR,067,69,2007_067d,26-Jul-2020 11:23:47,26-Jul-2020 03:23:47,35.02186,-120.91854,076.7 051.0,076.7,051.0,36.000,36.265,,13.4451,,13.4566,,13.4509,33.7054,,33.7056,33.7054,,33.7070,33.7063,4.5550,,4.7418,4.6556,4.3898,,6.5386,4.9368,4.7962,198.406,206.6279,202.4817,191.210,319.7279,206.9511,204.7164,0.2063,,2.0068,3.0210,-99.0,,-99.0,-99.0,25.3017,,25.2994,,0.9294,79.2674,,8.080,,1.9043E+00,,8.5561E-03,,13.4401,13.4516,0.1137,,76.929,74.156,,,,,,,,,,,,
CalCOFI,2007SR,067,69,2007_067d,26-Jul-2020 11:23:48,26-Jul-2020 03:23:48,35.02186,-120.91856,076.7 051.0,076.7,051.0,37.000,37.273,,13.3553,,13.3597,,13.3575,33.7031,,33.7033,33.7030,,33.7046,33.7040,4.5544,,4.7412,4.6550,4.3905,,6.5402,4.9387,4.7969,198.375,206.5956,202.4499,191.239,319.6521,207.0184,204.7342,0.2006,,1.9393,2.9130,-99.0,,-99.0,-99.0,25.3181,,25.3172,,0.9044,79.7633,,8.071,,1.9043E+00,,5.2780E-03,,13.3502,13.3545,0.1163,,76.776,74.020,,,,,,,,,,,,
CalCOFI,2007SR,067,69,2007_067d,26-Jul-2020 11:23:49,26-Jul-2020 03:23:49,35.02186,-120.91856,076.7 051.0,076.7,051.0,38.000,38.280,,13.3222,,13.3290,,13.3256,33.7052,,33.7054,33.7072,,33.7088,33.7071,4.5378,,4.7238,4.6379,4.3805,,6.5164,4.9123,4.7751,197.654,205.8429,201.7105,190.799,317.8886,205.9971,203.8538,0.2004,,1.9369,2.9093,-99.0,,-99.0,-99.0,25.3265,,25.3267,,0.9205,79.4450,,8.066,,1.9043E+00,,5.5860E-03,,13.3169,13.3238,0.1190,,76.446,73.806,,,,,,,,,,,,
CalCOFI,2007SR,067,69,2007_067d,26-Jul-2020 11:23:52,26-Jul-2020 03:23:52,35.02186,-120.91856,076.7 051.0,076.7,051.0,39.000,39.287,,13.3070,,13.3160,,13.3115,33.7056,,33.7058,33.7077,,33.7093,33.7076,4.5060,,4.6906,4.6051,4.3574,,6.4612,4.8514,4.7283,196.268,204.3961,200.2890,189.795,314.4987,203.6665,201.9778,0.2026,,1.9630,2.9509,-99.0,,-99.0,-99.0,25.3299,,25.3297,,0.9826,78.2256,,8.059,,1.9043E+00,,7.3441E-03,,13.3017,13.3106,0.1217,,75.887,73.399,,,,,,,,,,,,
CalCOFI,2007SR,067,69,2007_067d,26-Jul-2020 11:23:56,26-Jul-2020 03:23:56,35.02186,-120.91855,076.7 051.0,076.7,051.0,40.000,40.295,,13.2768,,13.3035,,13.2902,33.7030,,33.7032,33.7030,,33.7046,33.7039,4.3141,,4.4901,4.4074,4.3225,,6.3779,4.7593,4.5834,187.906,195.6670,191.7133,188.275,294.0464,200.1381,195.9257,0.2421,,2.4311,3.7078,-99.0,,-99.0,-99.0,25.3340,,25.3286,,0.9922,78.0327,,8.049,,1.9043E+00,,1.1284E-02,,13.2713,13.2980,0.1246,,72.608,72.790,40,12.639,33.7059,,179.04,1.123,0.577,10.79,0.144,1.08,1.04,12.82
CalCOFI,2007SR,067,69,2007_067d,26-Jul-2020 11:23:57,26-Jul-2020 03:23:57,35.02188,-120.91856,076.7 051.0,076.7,051.0,41.000,41.302,,13.1932,,13.1982,,13.1957,33.7030,,33.7032,33.7031,,33.7047,33.7040,4.3034,,4.4789,4.3964,4.3239,,6.3812,4.7630,4.5797,187.436,195.1763,191.2313,188.331,292.8969,200.2681,195.7497,0.1520,,1.3646,2.0093,-99.0,,-99.0,-99.0,25.3508,,25.3498,,0.9398,79.0669,,8.045,,1.9043E+00,,1.4394E-02,,13.1875,13.1926,0.1272,,72.303,72.656,,,,,,,,,,,,
CalCOFI,2007SR,067,69,2007_067d,26-Jul-2020 11:23:58,26-Jul-2020 03:23:58,35.02187,-120.91856,076.7 051.0,076.7,051.0,42.000,42.310,,13.1692,,13.1704,,13.1698,33.7030,,33.7032,33.7044,,33.7060,33.7046,4.2911,,4.4661,4.3837,4.3140,,6.3576,4.7369,4.5603,186.903,194.6199,190.6847,187.897,291.5932,199.2606,194.9727,0.1510,,1.3528,1.9910,-99.0,,-99.0,-99.0,25.3556,,25.3564,,0.8424,81.0091,,8.042,,1.9043E+00,,1.0466E-02,,13.1634,13.1647,0.1299,,72.062,72.448,,,,,,,,,,,,
CalCOFI,2007SR,067,69,2007_067d,26-Jul-2020 11:23:59,26-Jul-2020 03:23:59,35.02186,-120.91856,076.7 051.0,076.7,051.0,43.000,43.317,,13.1159,,13.1129,,13.1144,33.7014,,33.7016,33.7037,,33.7053,33.7035,4.2795,,4.4539,4.3717,4.3083,,6.3440,4.7218,4.5468,186.396,194.0907,190.1647,187.649,290.3532,198.6849,194.4248,0.1486,,1.3245,1.9472,-99.0,,-99.0,-99.0,25.3651,,25.3674,,0.8373,81.1159,,8.032,,1.9043E+00,,1.3537E-02,,13.1100,13.1070,0.1325,,71.788,72.267,,,,,,,,,,,,
CalCOFI,2007SR,067,69,2007_067d,26-Jul-2020 11:24:03,26-Jul-2020 03:24:03,35.02187,-120.91856,076.7 051.0,076.7,051.0,44.000,44.325,,13.0727,,13.1157,,13.0942,33.7043,,33.7045,33.7064,,33.7080,33.7063,4.1164,,4.2835,4.2037,4.2799,,6.2762,4.6469,4.4253,179.288,186.6706,182.8751,186.412,272.9680,195.8135,189.3443,0.1685,,1.5596,2.3129,-99.0,,-99.0,-99.0,25.3759,,25.3689,,0.8320,81.2254,,8.018,,1.9043E+00,,6.3366E-03,,13.0667,13.1097,0.1351,,68.991,71.796,,,,,,,,,,,,
CalCOFI,2007SR,067,69,2007_067d,26-Jul-2020 11:24:06,26-Jul-2020 03:24:06,35.02188,-120.91856,076.7 051.0,076.7,051.0,45.000,45.332,,12.8005,,12.8049,,12.8027,33.6904,,33.6906,33.6857,,33.6873,33.6890,3.9046,,4.0622,3.9854,4.2844,,6.2869,4.6588,4.3221,170.058,177.0354,173.4092,186.597,250.3928,196.2429,184.8261,0.1059,,0.8208,1.1791,-99.0,,-99.0,-99.0,25.4190,,25.4145,,0.7811,82.2610,,8.001,,1.9043E+00,,3.3511E-03,,12.7945,12.7988,0.1377,,65.069,71.402,,,,,,,,,,,,
CalCOFI,2007SR,067,69,2007_067d,26-Jul-2020 11:24:07,26-Jul-2020 03:24:07,35.02188,-120.91856,076.7 051.0,076.7,051.0,46.000,46.340,,12.6096,,12.6088,,12.6092,33.6911,,33.6913,33.6910,,33.6926,33.6920,3.9216,,4.0800,4.0029,4.2852,,6.2889,4.6609,4.3319,170.790,177.7996,174.1599,186.626,252.1831,196.3102,185.2351,0.1184,,0.9682,1.4016,-99.0,,-99.0,-99.0,25.4569,,25.4569,,0.7754,82.3785,,7.995,,1.9043E+00,,3.6075E-03,,12.6034,12.6027,0.1403,,65.094,71.129,,,,,,,,,,,,
CalCOFI,2007SR,067,69,2007_067d,26-Jul-2020 11:24:08,26-Jul-2020 03:24:08,35.02187,-120.91856,076.7 051.0,076.7,051.0,47.000,47.347,,12.5127,,12.5124,,12.5126,33.6961,,33.6963,33.6971,,33.6987,33.6975,3.9302,,4.0890,4.0118,4.2775,,6.2705,4.6406,4.3262,171.162,178.1879,174.5414,186.285,253.0930,195.5187,185.0301,0.1111,,0.8821,1.2714,-99.0,,-99.0,-99.0,25.4796,,25.4804,,0.7685,82.5199,,7.988,,1.9043E+00,,1.2346E-02,,12.5064,12.5061,0.1428,,65.108,70.861,,,,,,,,,,,,
CalCOFI,2007SR,067,69,2007_067d,26-Jul-2020 11:24:10,26-Jul-2020 03:24:10,35.02188,-120.91857,076.7 051.0,076.7,051.0,48.000,48.355,,12.4819,,12.4957,,12.4888,33.7001,,33.7003,33.7009,,33.7025,33.7014,3.9140,,4.0720,3.9951,4.2513,,6.2079,4.5714,4.2833,170.456,177.4509,173.8173,185.144,251.3662,192.8701,183.3437,0.1056,,0.8173,1.1737,-99.0,,-99.0,-99.0,25.4887,,25.4867,,0.7649,82.5953,,7.982,,1.9043E+00,,1.1248E-02,,12.4755,12.4893,0.1453,,64.801,70.405,,,,,,,,,,,,
CalCOFI,2007SR,067,69,2007_067d,26-Jul-2020 11:24:13,26-Jul-2020 03:24:13,35.02188,-120.91856,076.7 051.0,076.7,051.0,49.000,49.362,,12.4558,,12.4583,,12.4571,33.6975,,33.6977,33.6983,,33.6999,33.6988,3.8355,,3.9900,3.9142,4.2063,,6.1005,4.4527,4.1835,167.035,173.8797,170.3089,183.183,242.9989,188.3179,179.3134,0.1157,,0.9363,1.3534,-99.0,,-99.0,-99.0,25.4917,,25.4918,,0.7644,82.6056,,7.977,,1.9043E+00,,8.7761E-03,,12.4494,12.4519,0.1479,,63.465,69.604,,,,,,,,,,,,